Location: Proctor
(47.8934°N, 114.3048°W)
Time: 00:57:21
(UTC+00:00)

CAS-6 - Pass Details

Date: 01 July 2022
Orbit: 613 x 634 km, 97.9° (Epoch: 15 August)

Event Time Altitude Azimuth Distance (km) Brightness Sun altitude
Exits shadow 07:03:42 12° 236° (SW) 1,859 ? -18.5°
Maximum altitude 07:05:54 17° 270° (W) 1,605 ? -18.6°
Drops below altitude 10° 07:08:44 10° 310° (NW) 2,005 ? -18.6°
Sets 07:11:39 0° 331° (NNW) 2,913 ? -18.7°
